Weather History for Alexandria, Egypt

Change the Weather History Date:

Saturday, November 12, 2011

  Actual Average Record
Temperature  
Mean Temperature 66 °F -  
Max Temperature 78 °F 69 °F 80 °F (2004)
Min Temperature 54 °F 54 °F 37 °F (1998)
Cooling Degree Days 1    
Growing Degree Days 16 (Base 50)    
Moisture  
Dew Point 60 °F    
Average Humidity 79    
Maximum Humidity 100    
Minimum Humidity 50    
Precipitation  
Precipitation 0.00 in 0.05 in - ()
Sea Level Pressure  
Sea Level Pressure 30.01 in    
Wind  
Wind Speed 2 mph ()    
Max Wind Speed 9 mph    
Max Gust Speed -    
Visibility 4.3 miles    
Events Fog    
Averages and records for this station are not official NWS values.
T = Trace of Precipitation, MM = Missing Value Source: Averaged Metar Reports

Daily Weather History Graph

Daily Weather History Graph

Search for Another Location

Airport:

Trip Planner

Search our weather history database for the weather conditions in past years. The results will help you decide how hot, cold, wet, or windy it might be!

Date:

Astronomy

Nov. 12, 2011 Rise Set
Actual Time 6:24 AM EET 5:03 PM EET
Civil Twilight 5:58 AM EET 5:29 PM EET
Nautical Twilight 5:29 AM EET 5:58 PM EET
Astronomical Twilight 5:01 AM EET 6:27 PM EET
Moon 6:10 PM EET (11/12) 7:42 AM EET (11/12)
Length of Visible Light 11h 30m
Length of Day
10h 39m
Full, 98% of the Moon is Illuminated
Nov 12
Full
Nov 18
Last Quarter
Nov 25
New
Dec 2
First Quarter
Dec 10
Full

Hourly Weather History & Observations

Time (EET) Temp. Dew Point Humidity Pressure Visibility Wind Dir Wind Speed Gust Speed Precip Events Conditions
12:00 AM 60.8 °F 59.0 °F 94% 30.01 in - Calm Calm - N/A   Clear
1:00 AM 60.8 °F 59.0 °F 94% 30.01 in - Calm Calm - N/A   Clear
2:00 AM 59 °F 58 °F 93% 30.02 in 4 mi Calm Calm - -   Mist
2:00 AM 59.0 °F 57.2 °F 94% 30.01 in 3.7 mi Calm Calm - N/A   Partly Cloudy
3:00 AM 59.0 °F 57.2 °F 94% 30.01 in 1.9 mi Calm Calm - N/A   Partly Cloudy
4:00 AM 59.0 °F 57.2 °F 94% 30.01 in 1.9 mi Calm Calm - N/A   Partly Cloudy
5:00 AM 57.2 °F 57.2 °F 100% 30.01 in 0.9 mi Calm Calm - N/A   Partly Cloudy
6:00 AM 55.4 °F 53.6 °F 94% 30.01 in 0.9 mi Calm Calm - N/A   Partly Cloudy
7:00 AM 55.4 °F 55.4 °F 100% 30.01 in 0.5 mi Calm Calm - N/A Fog Fog
8:00 AM 61 °F 58 °F 85% 30.02 in 1 mi Calm Calm - -   Mist
8:00 AM 60.8 °F 57.2 °F 88% 30.01 in 0.9 mi Calm Calm - N/A   Partly Cloudy
9:00 AM 69.8 °F 60.8 °F 73% 30.04 in 6.2 mi SW 4.6 mph - N/A   Partly Cloudy
10:00 AM 71.6 °F 62.6 °F 73% 30.04 in 6.2 mi West 5.8 mph - N/A   Partly Cloudy
11:00 AM 77.0 °F 60.8 °F 57% 30.01 in 6.2 mi NNW 4.6 mph - N/A   Scattered Clouds
12:00 PM 78.8 °F 62.6 °F 57% 30.01 in 6.2 mi NNW 3.5 mph - N/A   Scattered Clouds
1:00 PM 77.0 °F 62.6 °F 61% 29.98 in 6.2 mi NNW 6.9 mph - N/A   Scattered Clouds
2:00 PM 77 °F 62 °F 50% 29.98 in 6 mi North 8.1 mph - -   Partly Cloudy
2:00 PM 78.8 °F 62.6 °F 57% 29.98 in 6.2 mi North 8.1 mph - N/A   Scattered Clouds
3:00 PM 75.2 °F 62.6 °F 65% 29.98 in 6.2 mi North 8.1 mph - N/A   Scattered Clouds
4:00 PM 73.4 °F 62.6 °F 69% 29.98 in 6.2 mi NNW 9.2 mph - N/A   Scattered Clouds
5:00 PM 69.8 °F 60.8 °F 73% 29.98 in 6.2 mi North 5.8 mph - N/A   Scattered Clouds
6:00 PM 69.8 °F 60.8 °F 73% 30.01 in 6.2 mi NNW 8.1 mph - N/A   Partly Cloudy
7:00 PM 69.8 °F 60.8 °F 73% 30.01 in - North 6.9 mph - N/A   Clear
8:00 PM 68 °F 59 °F 65% 30.01 in 6 mi North 5.8 mph - -  
8:00 PM 68.0 °F 59.0 °F 73% 30.01 in - North 5.8 mph - N/A   Clear
9:00 PM 64.4 °F 59.0 °F 83% 30.01 in - NE 4.6 mph - N/A   Clear
10:00 PM 62.6 °F 60.8 °F 94% 30.01 in - NE 4.6 mph - N/A   Clear
11:00 PM 60.8 °F 59.0 °F 94% 30.01 in - NE 3.5 mph - N/A   Clear